When you browse on this site, cookies collect data to enhance your experience and personalize the content and advertising you see.
Visit our Privacy Policy to learn more. By continuing to use the site, you agree to this use of cookies and data.
  • In Hungary
  • List of Countries
  • For 7 days
  • Water Temperature
  • Satellite Maps
  • Weather Map
  • News
  • Weather Widgets
  • user-avatar
    Login

    Hourly Weather Rio Branco do Sul

    Today, 19 November, Monday

    Time Temperature Precipitation Wind Pressure Humidity
    00:00 +18°C° 0 mm 1 mps 683 mmHg 97%
    01:00 +18°C° 0 mm 1 mps 683 mmHg 97%
    02:00 +18°C° 0 mm 1 mps 683 mmHg 97%
    03:00 +18°C° 0 mm 1 mps 683 mmHg 97%
    04:00 +16°C° 0.1 mm 1 mps 683 mmHg 97%
    05:00 +16°C° 0.1 mm 1 mps 683 mmHg 96%
    06:00 +16°C° 0.1 mm 1 mps 683 mmHg 96%
    07:00 +17°C° 0 mm 2 mps 684 mmHg 91%
    08:00 +18°C° 0 mm 2 mps 685 mmHg 86%
    09:00 +19°C° 0 mm 2 mps 685 mmHg 81%
    10:00 +19°C° 0 mm 2 mps 685 mmHg 80%
    11:00 +19°C° 0 mm 2 mps 685 mmHg 79%
    12:00 +19°C° 0 mm 2 mps 685 mmHg 78%
    13:00 +19°C° 0 mm 2 mps 685 mmHg 77%
    14:00 +19°C° 0 mm 2 mps 685 mmHg 76%
    15:00 +19°C° 0 mm 2 mps 684 mmHg 76%
    16:00 +18°C° 0 mm 2 mps 684 mmHg 78%
    17:00 +17°C° 0 mm 2 mps 684 mmHg 80%
    18:00 +16°C° 0 mm 2 mps 684 mmHg 82%
    19:00 +16°C° 0 mm 2 mps 684 mmHg 85%
    20:00 +15°C° 0 mm 2 mps 685 mmHg 88%
    21:00 +14°C° 0 mm 2 mps 685 mmHg 92%
    22:00 +13°C° 0 mm 1 mps 685 mmHg 93%
    23:00 +13°C° 0 mm 1 mps 685 mmHg 95%

    Tomorrow, 20 November, Tuesday

    Time Temperature Precipitation Wind Pressure Humidity
    00:00 +12°C° 0 mm 1 mps 685 mmHg 97%
    01:00 +12°C° 0 mm 1 mps 685 mmHg 96%
    02:00 +13°C° 0 mm 1 mps 685 mmHg 94%
    03:00 +13°C° 0 mm 1 mps 685 mmHg 93%
    04:00 +13°C° 0 mm 1 mps 685 mmHg 93%
    05:00 +13°C° 0 mm 1 mps 685 mmHg 93%
    06:00 +13°C° 0 mm 1 mps 685 mmHg 93%
    07:00 +14°C° 0 mm 1 mps 686 mmHg 88%
    08:00 +15°C° 0 mm 1 mps 686 mmHg 82%
    09:00 +16°C° 0 mm 2 mps 687 mmHg 76%
    10:00 +18°C° 0 mm 2 mps 687 mmHg 68%
    11:00 +20°C° 0 mm 2 mps 687 mmHg 61%
    12:00 +23°C° 0 mm 2 mps 688 mmHg 53%
    13:00 +24°C° 0 mm 2 mps 687 mmHg 52%
    14:00 +24°C° 0 mm 2 mps 686 mmHg 51%
    15:00 +24°C° 0 mm 2 mps 686 mmHg 50%
    16:00 +23°C° 0 mm 2 mps 686 mmHg 56%
    17:00 +20°C° 0 mm 2 mps 685 mmHg 63%
    18:00 +19°C° 0 mm 2 mps 685 mmHg 69%
    19:00 +17°C° 0 mm 2 mps 685 mmHg 77%
    20:00 +15°C° 0 mm 2 mps 686 mmHg 85%
    21:00 +13°C° 0 mm 1 mps 686 mmHg 93%
    22:00 +13°C° 0 mm 1 mps 686 mmHg 94%
    23:00 +12°C° 0 mm 1 mps 686 mmHg 96%

    Day after tomorrow, 21 November, Wednesday

    Time Temperature Precipitation Wind Pressure Humidity
    00:00 +12°C° 0 mm 1 mps 686 mmHg 97%
    01:00 +12°C° 0 mm 1 mps 686 mmHg 97%
    02:00 +12°C° 0 mm 1 mps 685 mmHg 96%
    03:00 +12°C° 0 mm 1 mps 685 mmHg 96%
    04:00 +12°C° 0 mm 1 mps 685 mmHg 95%
    05:00 +12°C° 0 mm 1 mps 685 mmHg 95%
    06:00 +12°C° 0 mm 1 mps 685 mmHg 95%
    07:00 +14°C° 0 mm 1 mps 686 mmHg 88%
    08:00 +16°C° 0 mm 1 mps 687 mmHg 81%
    09:00 +19°C° 0 mm 1 mps 687 mmHg 74%
    10:00 +19°C° 0 mm 2 mps 687 mmHg 72%
    11:00 +20°C° 0 mm 2 mps 687 mmHg 71%
    12:00 +21°C° 0 mm 2 mps 687 mmHg 69%
    13:00 +21°C° 0 mm 2 mps 686 mmHg 67%
    14:00 +23°C° 0 mm 2 mps 686 mmHg 66%
    15:00 +23°C° 0 mm 2 mps 685 mmHg 64%
    16:00 +23°C° 0 mm 2 mps 685 mmHg 68%
    17:00 +21°C° 0 mm 2 mps 685 mmHg 73%
    18:00 +20°C° 0 mm 2 mps 685 mmHg 77%
    19:00 +19°C° 0 mm 2 mps 685 mmHg 83%
    20:00 +19°C° 0 mm 1 mps 685 mmHg 88%
    21:00 +16°C° 0 mm 1 mps 685 mmHg 94%
    22:00 +16°C° 0 mm 1 mps 685 mmHg 95%
    23:00 +16°C° 0 mm 1 mps 685 mmHg 96%

    22 November, Thursday

    Time Temperature Precipitation Wind Pressure Humidity
    00:00 +16°C° 0 mm 1 mps 685 mmHg 97%
    01:00 +16°C° 0 mm 1 mps 685 mmHg 97%
    02:00 +16°C° 0 mm 1 mps 684 mmHg 97%
    03:00 +16°C° 0 mm 1 mps 684 mmHg 97%
    04:00 +16°C° 0 mm 1 mps 684 mmHg 97%
    05:00 +16°C° 0 mm 1 mps 684 mmHg 96%
    06:00 +16°C° 0 mm 1 mps 684 mmHg 96%
    07:00 +19°C° 0 mm 1 mps 685 mmHg 91%
    08:00 +20°C° 0 mm 1 mps 685 mmHg 85%
    09:00 +21°C° 0 mm 1 mps 686 mmHg 80%
    10:00 +22°C° 0.1 mm 1 mps 686 mmHg 76%
    11:00 +24°C° 0.1 mm 1 mps 686 mmHg 72%
    12:00 +25°C° 0.1 mm 1 mps 685 mmHg 69%
    13:00 +26°C° 0.2 mm 1 mps 685 mmHg 65%
    14:00 +27°C° 0.2 mm 1 mps 685 mmHg 61%
    15:00 +28°C° 0.2 mm 1 mps 684 mmHg 57%
    16:00 +27°C° 0.5 mm 1 mps 684 mmHg 65%
    17:00 +25°C° 0.5 mm 1 mps 683 mmHg 72%
    18:00 +24°C° 0.5 mm 1 mps 683 mmHg 80%
    19:00 +23°C° 0.1 mm 1 mps 683 mmHg 85%
    20:00 +21°C° 0.1 mm 1 mps 683 mmHg 91%
    21:00 +20°C° 0.1 mm 1 mps 684 mmHg 96%
    22:00 +20°C° 0 mm 1 mps 684 mmHg 97%
    23:00 +19°C° 0 mm 1 mps 683 mmHg 98%

    23 November, Friday

    Time Temperature Precipitation Wind Pressure Humidity
    00:00 +19°C° 0 mm 1 mps 683 mmHg 99%
    01:00 +19°C° 0 mm 1 mps 683 mmHg 98%
    02:00 +19°C° 0 mm 1 mps 682 mmHg 98%
    03:00 +18°C° 0 mm 1 mps 682 mmHg 98%
    04:00 +16°C° 0 mm 0 mps 682 mmHg 98%
    05:00 +16°C° 0 mm 0 mps 683 mmHg 97%
    06:00 +16°C° 0 mm 0 mps 683 mmHg 97%
    07:00 +21°C° 0 mm 1 mps 683 mmHg 86%
    08:00 +23°C° 0 mm 1 mps 684 mmHg 75%
    09:00 +26°C° 0 mm 1 mps 685 mmHg 65%
    10:00 +27°C° 0.7 mm 1 mps 684 mmHg 61%
    11:00 +28°C° 0.7 mm 1 mps 684 mmHg 57%
    12:00 +30°C° 0.7 mm 1 mps 684 mmHg 54%
    13:00 +30°C° 0.7 mm 1 mps 684 mmHg 54%
    14:00 +30°C° 0.7 mm 1 mps 683 mmHg 55%
    15:00 +28°C° 0.7 mm 0 mps 682 mmHg 55%
    16:00 +26°C° 0.7 mm 0 mps 682 mmHg 63%
    17:00 +26°C° 0.7 mm 1 mps 682 mmHg 71%
    18:00 +24°C° 0.7 mm 1 mps 682 mmHg 79%
    19:00 +21°C° 0.2 mm 0 mps 682 mmHg 83%
    20:00 +20°C° 0.2 mm 0 mps 682 mmHg 86%
    21:00 +19°C° 0.2 mm 0 mps 682 mmHg 90%
    22:00 +19°C° 0.8 mm 0 mps 682 mmHg 91%
    23:00 +18°C° 0.8 mm 0 mps 682 mmHg 93%

    24 November, Saturday

    Time Temperature Precipitation Wind Pressure Humidity
    00:00 +18°C° 0.8 mm 0 mps 681 mmHg 94%
    01:00 +18°C° 0.9 mm 0 mps 681 mmHg 94%
    02:00 +18°C° 0.9 mm 0 mps 681 mmHg 94%
    03:00 +18°C° 0.9 mm 0 mps 681 mmHg 94%
    04:00 +18°C° 0.9 mm 0 mps 681 mmHg 95%
    05:00 +20°C° 0.9 mm 1 mps 681 mmHg 95%
    06:00 +19°C° 0.9 mm 1 mps 682 mmHg 95%
    07:00 +20°C° 1 mm 1 mps 682 mmHg 95%
    08:00 +20°C° 1 mm 1 mps 683 mmHg 94%
    09:00 +21°C° 1 mm 1 mps 683 mmHg 94%
    10:00 +21°C° 0.6 mm 1 mps 683 mmHg 92%
    11:00 +22°C° 0.6 mm 1 mps 683 mmHg 89%
    12:00 +22°C° 0.6 mm 1 mps 682 mmHg 87%
    13:00 +22°C° 0.9 mm 1 mps 682 mmHg 89%
    14:00 +21°C° 0.9 mm 1 mps 681 mmHg 91%
    15:00 +21°C° 0.9 mm 1 mps 681 mmHg 93%
    16:00 +21°C° 0.9 mm 1 mps 681 mmHg 94%
    17:00 +20°C° 0.9 mm 1 mps 681 mmHg 95%
    18:00 +20°C° 0.9 mm 1 mps 681 mmHg 96%
    19:00 +19°C° 0.4 mm 1 mps 681 mmHg 97%
    20:00 +19°C° 0.4 mm 1 mps 681 mmHg 97%
    21:00 +19°C° 0.4 mm 1 mps 681 mmHg 97%
    22:00 +19°C° 0.3 mm 1 mps 681 mmHg 97%
    23:00 +18°C° 0.3 mm 1 mps 681 mmHg 97%
    Show more